Regional Weather Roundup
Issued by NWS Charleston, SC

Current Version | Previous Version | Text Only | Print | Product List | Glossary Off
Versions: 1 2 3 4 5 6 7 8 9 10 11 12 13 14 15 16 17 18 19 20 21 22 23 24 25 26 27 28 29 30 31 32 33 34 35 36 37 38 39 40 41 42 43 44 45 46 47 48 49 50

000
ASUS42 KCHS 010910
RWRCHS
REGIONAL WEATHER ROUNDUP
NATIONAL WEATHER SERVICE CHARLESTON SC
500 AM EDT WED OCT 01 2014

NOTE: "FAIR" INDICATES FEW OR NO CLOUDS BELOW 12,000 FEET WITH NO
SIGNIFICANT WEATHER AND/OR OBSTRUCTIONS TO VISIBILITY.

NOT ALL STATIONS ARE QUALITY CONTROLLED BY THE NATIONAL
WEATHER SERVICE. USE DATA WITH CAUTION...ESPECIALLY
DEWPOINT OBSERVATIONS.

SCZ027-030-031-034>040-042>050-011000-
...SOUTH CAROLINA...

CITY           SKY/WX    TMP DP  RH WIND       PRES   REMARKS
N CHARLESTON   CLEAR     65  62  90 CALM      29.90R
WATERFRONT PRK   N/A     70 N/A N/A NW5         N/A
FORT JOHNSON   NOT AVBL
MOUNT PLEASANT FAIR      63  63 100 CALM      29.90R
JOHNS ISLAND   SUNNY     64  64 100 CALM      29.91R
PINOPOLIS        N/A     73  70  88 E3        29.81F
MONCKS CORNER    N/A     63  63 100 CALM      29.90S FOG
SUMMERVILLE    FAIR      61  61 100 CALM      29.92R
BEAUFORT MCAS  CLEAR     66  64  93 CALM      29.90S
BEAUFORT ARPT  FAIR      68  68 100 CALM      29.90R FOG
HILTON HEAD IS   N/A     64  64 100 CALM      29.92R
GEORGETOWN     NOT AVBL
WALTERBORO     SUNNY     61 N/A N/A CALM      29.92R
ORANGEBURG     CLEAR     61  59  93 CALM      29.92R
BARNWELL       FAIR      61  59  94 CALM      29.92S
AIKEN          FAIR      59  59 100 CALM      29.96R
MANNING        FAIR      59 N/A N/A CALM      29.91R
KINGSTREE      NOT AVBL
COLUMBIA       MOCLDY    62  58  86 CALM      29.92R
SUMTER         CLEAR     62  59  90 CALM      29.90R
FLORENCE       CLEAR     61  59  93 N3        29.91S
MYRTLE BEACH   CLEAR     64  61  88 N3        29.90R
N MYRTLE BEACH CLEAR     63  61  93 N3        29.90R

$$

GAZ063-065-086>088-099>101-113>116-118-119-134-136>141-150-011000-
...GEORGIA...

CITY           SKY/WX    TMP DP  RH WIND       PRES   REMARKS
SAVANNAH ARPT  CLEAR     66  63  90 CALM      29.91R
HUNTER AAF     CLEAR     64  64 100 NW2       29.89R
FORT STEWART   CLEAR     64  63  96 CALM      29.90R
STATESBORO     NOT AVBL
SYLVANIA       SUNNY     64  64  99 CALM      29.92R
CLAXTON        FAIR      63  63 100 CALM      29.92R FOG
THOMSON        CLEAR     60  60 100 CALM      29.97R
AUGUSTA-BUSH   PTCLDY    58  58 100 CALM      29.92R
AUGUSTA-DANIEL CLEAR     66  63  90 CALM      29.93R
SWAINSBORO     FAIR      64  64 100 CALM      29.93R
VIDALIA        CLEAR     66  64  94 CALM      29.92R
ALMA           PTCLDY    65  64  97 N3        29.91R
WAYCROSS       FOG       69  69 100 CALM      29.91R VSB 1/4
JESUP          FAIR      64  64 100 CALM      29.91R
BRUNSWICK      MOCLDY    64  63  94 CALM      29.90S
SAINT SIMONS   PTCLDY    68  66  93 N3        29.90R

$$

SCZ027-028-034-036>038-045-046-048>050-GAZ119-141-011000-
...LAKE AND SUPPLEMENTAL COASTAL OBSERVATIONS...

STATION/POSITION TIME  TEMP    WIND        PRES    WAVE   SWELL
                       AIR SEA DIR/SP/G            HT/PER HT/PER/DIR
                 (UTC) (F)     (DEG/KT/KT) (MB)    (FT/S) (FT/S/D)
UPR LAKE MARION  NOT AVBL
WINYAH BAY       0800   67     360/  3     1012.0S
LAKE MURRAY      0800   66      CALM  /  1 1012.5S
ACE BASIN NERRS  0800   65        CALM     1012.0S
FORT PULASKI     0900   69     310/  5/  6 1012.8R
SAPELO ISLAND    NOT AVBL

$$

ANZ835-935-AMZ111-154-330-350-352-354-374-450-454-472-011000-
...C-MAN AND BUOY OBSERVATIONS...

STATION/POSITION TIME  TEMP    WIND        PRES    WAVE   SWELL
                       AIR SEA DIR/SP/G            HT/PER HT/PER/DIR
                 (UTC) (F)     (DEG/KT/KT) (MB)    (FT/S) (FT/S/D)
FOLLY BEACH CMAN 0800   67     300/  3/  4 1012.6F
BUOY 41004       0900   76 81   10/  8/ 10 1011.4R   3/ 6   3/ 6
BUOY 41008       0900   76 79   20/  6/  8 1012.1R   3/ 6   2/ 70/ 6
5E ST. MARYS GA  0900      79                N/A     3/ 8
FRYING PAN BUOY  NOT AVBL
BUOY 41025       0900   71     350/ 16/ 19 1011.1R   4/ 7   2/ 70/ 8
CAPE LOOKOUT NC  0800   68     360/ 10/ 12 1011.5S
BUOY 41002       0752   78 80  360/ 12/ 14 1008.8R   3/ 6   2/ 40/ 6
BUOY 41010       0900   81 85   20/  6/  8 1010.8R   4/ 8   3/ 20/ 8
BUOY 41012       NOT AVBL
ST AUGUSTINE FL  0900   78      40/ 11/ 12 1012.0S
CAPERS NEARSHORE 0800   72      10/  8/ 10   N/A
FRIPP NEARSHORE  NOT AVBL


$$


USA.gov is the U.S. government's official web portal to all federal, state and local government web resources and services.